,,,PA_Meas_PMT16A,,PR_Meas_QMR101_102,,RH_Meas_QMH101,,SR_Meas_QMS101,,TA_Meas_QMH101,,GenWind,,GenWind,
date,time,status,PA,status,PR,status,RH,status,SR,status,TA,status,DirAvg,status,SpdAvg,
2010-08-14, 00:00:04,VALID,1005.4,VALID,0,INVALID,115.585,VALID,0,VALID,24.1318,VALID,27,VALID,0,
2010-08-14, 00:01:04,VALID,1005.39,VALID,0,INVALID,115.555,VALID,0,VALID,24.13,VALID,26,VALID,0,
2010-08-14, 00:02:04,VALID,1005.37,VALID,0,INVALID,115.593,VALID,0,VALID,24.1318,VALID,26,VALID,0,
2010-08-14, 00:03:04,VALID,1005.34,VALID,0,INVALID,115.623,VALID,0,VALID,24.091,VALID,26,VALID,0,
2010-08-14, 00:04:04,VALID,1005.31,VALID,0,INVALID,115.631,VALID,0,VALID,24.0734,VALID,26,VALID,0,
2010-08-14, 00:05:04,VALID,1005.32,VALID,0,INVALID,115.639,VALID,0,VALID,24.0326,VALID,26,VALID,0,
2010-08-14, 00:06:04,VALID,1005.3,VALID,0,INVALID,115.661,VALID,0,VALID,24.0326,VALID,26,VALID,0,
2010-08-14, 00:07:04,VALID,1005.24,VALID,0,INVALID,115.555,VALID,0,VALID,24.0132,VALID,26,VALID,0,
2010-08-14, 00:08:04,VALID,1005.22,VALID,0,INVALID,115.517,VALID,0,VALID,24.0132,VALID,26,VALID,0,
2010-08-14, 00:09:04,VALID,1005.2,VALID,0,INVALID,115.448,VALID,0,VALID,24.0326,VALID,26,VALID,0,
2010-08-14, 00:10:04,VALID,1005.15,VALID,0,INVALID,115.41,VALID,0,VALID,24.0539,VALID,26,VALID,0,
2010-08-14, 00:11:04,VALID,1005.12,VALID,0,INVALID,115.341,VALID,0,VALID,24.0539,VALID,26,VALID,0,
2010-08-14, 00:12:04,VALID,1005.1,VALID,0,INVALID,115.333,VALID,0,VALID,24.0521,VALID,26,VALID,0,
2010-08-14, 00:13:04,VALID,1005.06,VALID,0,INVALID,115.333,VALID,0,VALID,24.0345,VALID,26,VALID,0,
2010-08-14, 00:14:04,VALID,1005.06,VALID,0,INVALID,115.318,VALID,0,VALID,24.0132,VALID,26,VALID,0,
2010-08-14, 00:15:04,VALID,1005.01,VALID,0,INVALID,115.295,VALID,0,VALID,23.9919,VALID,26,VALID,0,
2010-08-14, 00:16:04,VALID,1005.01,VALID,0,INVALID,115.234,VALID,0,VALID,23.9919,VALID,26,VALID,0,
2010-08-14, 00:17:04,VALID,1004.98,VALID,0,INVALID,115.097,VALID,0,VALID,24.0326,VALID,26,VALID,0,
2010-08-14, 00:18:04,VALID,1004.99,VALID,0,INVALID,114.967,VALID,0,VALID,24.0716,VALID,26,VALID,0,
2010-08-14, 00:19:04,VALID,1004.97,VALID,0,INVALID,114.876,VALID,0,VALID,24.091,VALID,26,VALID,0,
2010-08-14, 00:20:04,VALID,1004.97,VALID,0,INVALID,114.815,VALID,0,VALID,24.1318,VALID,26,VALID,0,
2010-08-14, 00:21:04,VALID,1004.96,VALID,0,INVALID,114.761,VALID,0,VALID,24.13,VALID,26,VALID,0,
2010-08-14, 00:22:04,VALID,1004.94,VALID,0,INVALID,114.777,VALID,0,VALID,24.13,VALID,26,VALID,0,
2010-08-14, 00:23:04,VALID,1004.94,VALID,0,INVALID,114.876,VALID,0,VALID,24.091,VALID,26,VALID,0,
2010-08-14, 00:24:04,VALID,1004.92,VALID,0,INVALID,114.944,VALID,0,VALID,24.0929,VALID,26,VALID,0,
2010-08-14, 00:25:04,VALID,1004.93,VALID,0,INVALID,114.921,VALID,0,VALID,24.0503,VALID,26,VALID,0,
2010-08-14, 00:26:04,VALID,1004.93,VALID,0,INVALID,114.937,VALID,0,VALID,24.0716,VALID,26,VALID,0,
2010-08-14, 00:27:04,VALID,1004.89,VALID,0,INVALID,114.952,VALID,0,VALID,24.0929,VALID,26,VALID,0,
2010-08-14, 00:28:04,VALID,1004.89,VALID,0,INVALID,114.967,VALID,0,VALID,24.0521,VALID,26,VALID,0,
2010-08-14, 00:29:04,VALID,1004.88,VALID,0,INVALID,114.975,VALID,0,VALID,24.0734,VALID,26,VALID,0,
2010-08-14, 00:30:04,VALID,1004.88,VALID,0,INVALID,114.952,VALID,0,VALID,24.0521,VALID,26,VALID,0,
2010-08-14, 00:31:04,VALID,1004.85,VALID,0,INVALID,114.944,VALID,0,VALID,24.0521,VALID,26,VALID,0,
2010-08-14, 00:32:04,VALID,1004.83,VALID,0,INVALID,114.967,VALID,0,VALID,24.0539,VALID,26,VALID,0,
2010-08-14, 00:33:04,VALID,1004.87,VALID,0,INVALID,114.975,VALID,0,VALID,24.0539,VALID,26,VALID,0,
2010-08-14, 00:34:04,VALID,1004.84,VALID,0,INVALID,114.944,VALID,0,VALID,24.0539,VALID,26,VALID,0,
2010-08-14, 00:35:04,VALID,1004.85,VALID,0,INVALID,114.914,VALID,0,VALID,24.0132,VALID,26,VALID,0,
2010-08-14, 00:36:04,VALID,1004.82,VALID,0,INVALID,114.891,VALID,0,VALID,23.9937,VALID,26,VALID,0,
2010-08-14, 00:37:04,VALID,1004.81,VALID,0,INVALID,114.845,VALID,0,VALID,24.0132,VALID,26,VALID,0,
2010-08-14, 00:38:04,VALID,1004.81,VALID,0,INVALID,114.838,VALID,0,VALID,24.0132,VALID,26,VALID,0,
2010-08-14, 00:39:04,VALID,1004.84,VALID,0,INVALID,114.799,VALID,0,VALID,24.0132,VALID,26,VALID,0,
2010-08-14, 00:40:04,VALID,1004.81,VALID,0,INVALID,114.746,VALID,0,VALID,24.0326,VALID,26,VALID,0,
2010-08-14, 00:41:04,VALID,1004.81,VALID,0,INVALID,114.639,VALID,0,VALID,24.0734,VALID,26,VALID,0,
2010-08-14, 00:42:04,VALID,1004.82,VALID,0,INVALID,114.601,VALID,0,VALID,24.0734,VALID,26,VALID,0,
2010-08-14, 00:43:04,VALID,1004.83,VALID,0,INVALID,114.54,VALID,0,VALID,24.0716,VALID,26,VALID,0,
2010-08-14, 00:44:04,VALID,1004.86,VALID,0,INVALID,114.502,VALID,0,VALID,24.0716,VALID,26,VALID,0,
2010-08-14, 00:45:04,VALID,1004.84,VALID,0,INVALID,114.548,VALID,0,VALID,24.0929,VALID,26,VALID,0,
2010-08-14, 00:46:04,VALID,1004.84,VALID,0,INVALID,114.571,VALID,0,VALID,24.0929,VALID,26,VALID,0,
2010-08-14, 00:47:04,VALID,1004.85,VALID,0,INVALID,114.563,VALID,0,VALID,24.0521,VALID,26,VALID,0,
2010-08-14, 00:48:04,VALID,1004.84,VALID,0,INVALID,114.532,VALID,0,VALID,24.0734,VALID,26,VALID,0,
2010-08-14, 00:49:04,VALID,1004.82,VALID,0,INVALID,114.54,VALID,0,VALID,24.0539,VALID,25,VALID,0,
2010-08-14, 00:50:04,VALID,1004.8,VALID,0,INVALID,114.609,VALID,0,VALID,24.0326,VALID,25,VALID,0,
2010-08-14, 00:51:04,VALID,1004.79,VALID,0,INVALID,114.555,VALID,0,VALID,24.0132,VALID,25,VALID,0,
2010-08-14, 00:52:04,VALID,1004.78,VALID,0,INVALID,114.448,VALID,0,VALID,24.0326,VALID,25,VALID,0,
2010-08-14, 00:53:04,VALID,1004.76,VALID,0,INVALID,114.494,VALID,0,VALID,24.0521,VALID,25,VALID,0,
2010-08-14, 00:54:04,VALID,1004.73,VALID,0,INVALID,114.563,VALID,0,VALID,24.0132,VALID,25,VALID,0,
2010-08-14, 00:55:04,VALID,1004.73,VALID,0,INVALID,114.479,VALID,0,VALID,24.0326,VALID,25,VALID,0,
2010-08-14, 00:56:04,VALID,1004.69,VALID,0,INVALID,114.517,VALID,0,VALID,24.0345,VALID,25,VALID,0,
2010-08-14, 00:57:04,VALID,1004.68,VALID,0,INVALID,114.464,VALID,0,VALID,24.0132,VALID,25,VALID,0,
2010-08-14, 00:58:04,VALID,1004.68,VALID,0,INVALID,114.319,VALID,0,VALID,24.0521,VALID,25,VALID,0,
2010-08-14, 00:59:04,VALID,1004.7,VALID,0,INVALID,114.304,VALID,0,VALID,24.0521,VALID,25,VALID,0,
2010-08-14, 01:00:04,VALID,1004.69,VALID,0,INVALID,114.197,VALID,0,VALID,24.0929,VALID,25,VALID,0,
2010-08-14, 01:01:04,VALID,1004.71,VALID,0,INVALID,114.052,VALID,0,VALID,24.1318,VALID,25,VALID,0,
2010-08-14, 01:02:04,VALID,1004.66,VALID,0,INVALID,114.128,VALID,0,VALID,24.1123,VALID,25,VALID,0,
2010-08-14, 01:03:04,VALID,1004.66,VALID,0,INVALID,114.197,VALID,0,VALID,24.091,VALID,25,VALID,0,
2010-08-14, 01:04:04,VALID,1004.65,VALID,0,INVALID,114.151,VALID,0,VALID,24.091,VALID,25,VALID,0,
2010-08-14, 01:05:04,VALID,1004.63,VALID,0,INVALID,114.12,VALID,0,VALID,24.091,VALID,25,VALID,0,
2010-08-14, 01:06:04,VALID,1004.64,VALID,0,INVALID,114.197,VALID,0,VALID,24.0929,VALID,25,VALID,0,
2010-08-14, 01:07:04,VALID,1004.64,VALID,0,INVALID,114.281,VALID,0,VALID,24.0716,VALID,25,VALID,0,
2010-08-14, 01:08:04,VALID,1004.63,VALID,0,INVALID,114.38,VALID,0,VALID,24.0345,VALID,25,VALID,0,
2010-08-14, 01:09:04,VALID,1004.62,VALID,0,INVALID,114.456,VALID,0,VALID,23.9937,VALID,25,VALID,0,
2010-08-14, 01:10:04,VALID,1004.61,VALID,0,INVALID,114.395,VALID,0,VALID,24.0132,VALID,25,VALID,0,
2010-08-14, 01:11:04,VALID,1004.64,VALID,0,INVALID,114.227,VALID,0,VALID,24.0326,VALID,25,VALID,0,
2010-08-14, 01:12:04,VALID,1004.63,VALID,0,INVALID,114.098,VALID,0,VALID,24.0716,VALID,25,VALID,0,
2010-08-14, 01:13:04,VALID,1004.66,VALID,0,INVALID,114.059,VALID,0,VALID,24.091,VALID,25,VALID,0,
2010-08-14, 01:14:04,VALID,1004.64,VALID,0,INVALID,113.96,VALID,0,VALID,24.0892,VALID,25,VALID,0,
2010-08-14, 01:15:04,VALID,1004.63,VALID,0,INVALID,113.853,VALID,0,VALID,24.13,VALID,22,VALID,0,
2010-08-14, 01:16:04,VALID,1004.62,VALID,0,INVALID,113.861,VALID,0,VALID,24.1494,VALID,22,VALID,0,
2010-08-14, 01:17:04,VALID,1004.65,VALID,0,INVALID,113.96,VALID,0,VALID,24.1087,VALID,22,VALID,0,
2010-08-14, 01:18:04,VALID,1004.65,VALID,0,INVALID,114.021,VALID,0,VALID,24.1318,VALID,15,VALID,0,
2010-08-14, 01:19:04,VALID,1004.62,VALID,0,INVALID,114.105,VALID,0,VALID,24.1105,VALID,15,VALID,0,
2010-08-14, 01:20:04,VALID,1004.66,VALID,0,INVALID,114.166,VALID,0,VALID,24.0929,VALID,10,VALID,0,
2010-08-14, 01:21:04,VALID,1004.63,VALID,0,INVALID,114.006,VALID,0,VALID,24.091,VALID,8,VALID,0,
2010-08-14, 01:22:04,VALID,1004.65,VALID,0,INVALID,114.059,VALID,0,VALID,24.1105,VALID,4,VALID,0,
2010-08-14, 01:23:04,VALID,1004.64,VALID,0,INVALID,114.181,VALID,0,VALID,24.0716,VALID,360,VALID,0,
2010-08-14, 01:24:04,VALID,1004.64,VALID,0,INVALID,114.38,VALID,0,VALID,24.0132,VALID,359,VALID,0,
2010-08-14, 01:25:04,VALID,1004.63,VALID,0,INVALID,114.242,VALID,0,VALID,24.0326,VALID,359,VALID,0,
2010-08-14, 01:26:04,VALID,1004.64,VALID,0,INVALID,114.319,VALID,0,VALID,24.0132,VALID,359,VALID,0,
2010-08-14, 01:27:04,VALID,1004.63,VALID,0,INVALID,114.395,VALID,0,VALID,23.9937,VALID,359,VALID,0,
2010-08-14, 01:28:04,VALID,1004.62,VALID,0,INVALID,114.494,VALID,0.100563,VALID,23.9742,VALID,359,VALID,0,
2010-08-14, 01:29:04,VALID,1004.6,VALID,0,INVALID,114.593,VALID,0,VALID,23.9353,VALID,359,VALID,0,
2010-08-14, 01:30:04,VALID,1004.6,VALID,0,INVALID,114.647,VALID,0,VALID,23.9159,VALID,359,VALID,0,
2010-08-14, 01:31:04,VALID,1004.61,VALID,0,INVALID,114.662,VALID,0,VALID,23.8964,VALID,359,VALID,0,
2010-08-14, 01:32:04,VALID,1004.56,VALID,0,INVALID,114.647,VALID,0,VALID,23.8769,VALID,359,VALID,0,
2010-08-14, 01:33:04,VALID,1004.59,VALID,0,INVALID,114.639,VALID,0,VALID,23.8769,VALID,359,VALID,0,
2010-08-14, 01:34:04,VALID,1004.6,VALID,0,INVALID,114.586,VALID,0,VALID,23.8982,VALID,359,VALID,0,
2010-08-14, 01:35:04,VALID,1004.63,VALID,0,INVALID,114.525,VALID,0,VALID,23.8769,VALID,359,VALID,0,
2010-08-14, 01:36:04,VALID,1004.64,VALID,0,INVALID,114.517,VALID,0,VALID,23.8769,VALID,359,VALID,0,
2010-08-14, 01:37:04,VALID,1004.63,VALID,0,INVALID,114.517,VALID,0,VALID,23.8769,VALID,359,VALID,0,
2010-08-14, 01:38:04,VALID,1004.65,VALID,0,INVALID,114.471,VALID,0,VALID,23.8769,VALID,359,VALID,0,
2010-08-14, 01:39:04,VALID,1004.66,VALID,0,INVALID,114.456,VALID,0,VALID,23.8556,VALID,359,VALID,0,
2010-08-14, 01:40:04,VALID,1004.66,VALID,0,INVALID,114.456,VALID,0,VALID,23.8787,VALID,359,VALID,0,
2010-08-14, 01:41:04,VALID,1004.68,VALID,0,INVALID,114.441,VALID,0,VALID,23.8575,VALID,359,VALID,0,
2010-08-14, 01:42:04,VALID,1004.7,VALID,0,INVALID,114.41,VALID,0,VALID,23.838,VALID,359,VALID,0,
2010-08-14, 01:43:04,VALID,1004.72,VALID,0,INVALID,114.448,VALID,0,VALID,23.8185,VALID,359,VALID,0,
2010-08-14, 01:44:04,VALID,1004.7,VALID,0,INVALID,114.433,VALID,0,VALID,23.8203,VALID,359,VALID,0,
2010-08-14, 01:45:04,VALID,1004.72,VALID,0,INVALID,114.433,VALID,0,VALID,23.7991,VALID,359,VALID,0,
2010-08-14, 01:46:04,VALID,1004.69,VALID,0,INVALID,114.319,VALID,0,VALID,23.7991,VALID,359,VALID,0,
2010-08-14, 01:47:04,VALID,1004.69,VALID,0,INVALID,114.258,VALID,0,VALID,23.8185,VALID,359,VALID,0,
2010-08-14, 01:48:04,VALID,1004.69,VALID,0,INVALID,114.273,VALID,0,VALID,23.7991,VALID,359,VALID,0,
2010-08-14, 01:49:04,VALID,1004.66,VALID,0,INVALID,114.22,VALID,0,VALID,23.7991,VALID,359,VALID,0,
2010-08-14, 01:50:04,VALID,1004.64,VALID,0,INVALID,114.181,VALID,0,VALID,23.7991,VALID,359,VALID,0,
2010-08-14, 01:51:04,VALID,1004.66,VALID,0,INVALID,114.014,VALID,0,VALID,23.8398,VALID,355,VALID,0.430859,
2010-08-14, 01:52:04,VALID,1004.65,VALID,0,INVALID,113.792,VALID,0,VALID,23.8769,VALID,355,VALID,0.664453,
2010-08-14, 01:53:04,VALID,1004.62,VALID,0,INVALID,113.663,VALID,0,VALID,23.9353,VALID,355,VALID,0.692187,
2010-08-14, 01:54:04,VALID,1004.62,VALID,0,INVALID,113.663,VALID,0,VALID,23.9353,VALID,353,VALID,0.551953,
2010-08-14, 01:55:04,VALID,1004.63,VALID,0,INVALID,113.769,VALID,0,VALID,23.8964,VALID,353,VALID,0.625,
2010-08-14, 01:56:04,VALID,1004.62,VALID,0,INVALID,113.785,VALID,0,VALID,23.9177,VALID,353,VALID,0.489844,
2010-08-14, 01:57:04,VALID,1004.59,VALID,0,INVALID,113.739,VALID,0,VALID,23.8964,VALID,349,VALID,0.609375,
2010-08-14, 01:58:04,VALID,1004.61,VALID,0,INVALID,113.655,VALID,0,VALID,23.8946,VALID,344,VALID,0.419531,
2010-08-14, 01:59:04,VALID,1004.56,VALID,0,INVALID,113.67,VALID,0,VALID,23.9159,VALID,353,VALID,0.741406,
2010-08-14, 02:00:04,VALID,1004.56,VALID,0,INVALID,113.655,VALID,0,VALID,23.9159,VALID,331,VALID,0.466016,
2010-08-14, 02:01:04,VALID,1004.53,VALID,0,INVALID,113.686,VALID,0,VALID,23.9353,VALID,347,VALID,0.510547,
2010-08-14, 02:02:04,VALID,1004.56,VALID,0,INVALID,113.594,VALID,0,VALID,23.9548,VALID,4,VALID,0.480469,
2010-08-14, 02:03:04,VALID,1004.54,VALID,0,INVALID,113.548,VALID,0,VALID,23.9742,VALID,357,VALID,0.502734,
2010-08-14, 02:04:04,VALID,1004.54,VALID,0,INVALID,113.594,VALID,0,VALID,23.9937,VALID,10,VALID,0.475781,
2010-08-14, 02:05:04,VALID,1004.53,VALID,0,INVALID,113.64,VALID,0,VALID,24.0345,VALID,3,VALID,0.392188,
2010-08-14, 02:06:04,VALID,1004.5,VALID,0,INVALID,113.678,VALID,0,VALID,24.0734,VALID,340,VALID,0.422656,
2010-08-14, 02:07:04,VALID,1004.5,VALID,0,INVALID,113.731,VALID,0,VALID,24.0716,VALID,340,VALID,0.106641,
2010-08-14, 02:08:04,VALID,1004.49,VALID,0,INVALID,113.853,VALID,0,VALID,24.0929,VALID,341,VALID,0.0800781,
2010-08-14, 02:09:04,VALID,1004.45,VALID,0,INVALID,113.945,VALID,0,VALID,24.091,VALID,341,VALID,0,
2010-08-14, 02:10:04,VALID,1004.43,VALID,0,INVALID,114.113,VALID,0,VALID,24.091,VALID,341,VALID,0.217578,
2010-08-14, 02:11:04,VALID,1004.42,VALID,0,INVALID,114.227,VALID,0,VALID,24.1105,VALID,341,VALID,0.104297,
2010-08-14, 02:12:04,VALID,1004.37,VALID,0,INVALID,114.372,VALID,0,VALID,24.1105,VALID,341,VALID,0.273438,
2010-08-14, 02:13:04,VALID,1004.38,VALID,0,INVALID,114.548,VALID,0,VALID,24.13,VALID,346,VALID,0.546094,
2010-08-14, 02:14:04,VALID,1004.33,VALID,0,INVALID,114.746,VALID,0,VALID,24.1318,VALID,346,VALID,0.682422,
2010-08-14, 02:15:04,VALID,1004.31,VALID,0,INVALID,114.838,VALID,0,VALID,24.1494,VALID,347,VALID,0.719141,
2010-08-14, 02:16:04,VALID,1004.31,VALID,0,INVALID,115.127,VALID,0,VALID,24.1707,VALID,1,VALID,0.470313,
2010-08-14, 02:17:04,VALID,1004.3,VALID,0,INVALID,115.433,VALID,0,VALID,24.13,VALID,16,VALID,0.487891,
2010-08-14, 02:18:04,VALID,1004.29,VALID,0,INVALID,115.7,VALID,0,VALID,24.1123,VALID,16,VALID,0.328906,
2010-08-14, 02:19:04,VALID,1004.29,VALID,0,INVALID,115.921,VALID,0,VALID,24.0521,VALID,16,VALID,0.483203,
2010-08-14, 02:20:04,VALID,1004.28,VALID,0,INVALID,116.104,VALID,0,VALID,24.0132,VALID,16,VALID,0.353125,
2010-08-14, 02:21:04,VALID,1004.28,VALID,0,INVALID,116.257,VALID,0,VALID,23.9742,VALID,16,VALID,0.455469,
2010-08-14, 02:22:04,VALID,1004.3,VALID,0,INVALID,116.302,VALID,0,VALID,23.9353,VALID,16,VALID,0.369531,
2010-08-14, 02:23:04,VALID,1004.3,VALID,0,INVALID,116.325,VALID,0,VALID,23.9353,VALID,16,VALID,0.265234,
2010-08-14, 02:24:04,VALID,1004.3,VALID,0,INVALID,116.302,VALID,0,VALID,23.9584,VALID,16,VALID,0.33125,
2010-08-14, 02:25:04,VALID,1004.31,VALID,0,INVALID,116.188,VALID,0,VALID,23.9353,VALID,16,VALID,0.298047,
2010-08-14, 02:26:04,VALID,1004.28,VALID,0,INVALID,116.249,VALID,0,VALID,23.9159,VALID,16,VALID,0.06875,
2010-08-14, 02:27:04,VALID,1004.32,VALID,0,INVALID,116.226,VALID,0,VALID,23.8769,VALID,16,VALID,0,
2010-08-14, 02:28:04,VALID,1004.28,VALID,0,INVALID,116.051,VALID,0,VALID,23.8964,VALID,16,VALID,0,
2010-08-14, 02:29:04,VALID,1004.26,VALID,0,INVALID,115.845,VALID,0,VALID,23.9353,VALID,16,VALID,0,
2010-08-14, 02:30:04,VALID,1004.28,VALID,0,INVALID,115.745,VALID,0,VALID,23.9761,VALID,16,VALID,0,
2010-08-14, 02:31:04,VALID,1004.26,VALID,0,INVALID,115.677,VALID,0,VALID,23.9761,VALID,16,VALID,0,
2010-08-14, 02:32:04,VALID,1004.24,VALID,0,INVALID,115.776,VALID,0,VALID,23.9159,VALID,16,VALID,0.447656,
2010-08-14, 02:33:04,VALID,1004.24,VALID,0,INVALID,115.799,VALID,0,VALID,23.8769,VALID,16,VALID,0.292969,
2010-08-14, 02:34:04,VALID,1004.25,VALID,0,INVALID,115.806,VALID,0,VALID,23.8787,VALID,16,VALID,0.339453,
2010-08-14, 02:35:04,VALID,1004.26,VALID,0,INVALID,115.745,VALID,0,VALID,23.8593,VALID,16,VALID,0.352344,
2010-08-14, 02:36:04,VALID,1004.24,VALID,0,INVALID,115.768,VALID,0,VALID,23.8185,VALID,16,VALID,0.354297,
2010-08-14, 02:37:04,VALID,1004.25,VALID,0,INVALID,115.791,VALID,0,VALID,23.7991,VALID,16,VALID,0.257813,
2010-08-14, 02:38:04,VALID,1004.24,VALID,0,INVALID,115.799,VALID,0,VALID,23.7601,VALID,16,VALID,0.197266,
2010-08-14, 02:39:04,VALID,1004.22,VALID,0,INVALID,115.784,VALID,0,VALID,23.7619,VALID,16,VALID,0,
2010-08-14, 02:40:04,VALID,1004.21,VALID,0,INVALID,115.791,VALID,0,VALID,23.7425,VALID,16,VALID,0,
2010-08-14, 02:41:04,VALID,1004.21,VALID,0,INVALID,115.753,VALID,0.100563,VALID,23.723,VALID,16,VALID,0,
2010-08-14, 02:42:04,VALID,1004.22,VALID,0,INVALID,115.722,VALID,0.100563,VALID,23.661,VALID,16,VALID,0,
2010-08-14, 02:43:04,VALID,1004.21,VALID,0,INVALID,115.753,VALID,0,VALID,23.6628,VALID,16,VALID,0,
2010-08-14, 02:44:04,VALID,1004.2,VALID,0,INVALID,115.722,VALID,0.100563,VALID,23.6416,VALID,16,VALID,0,
2010-08-14, 02:45:04,VALID,1004.21,VALID,0,INVALID,115.661,VALID,0,VALID,23.6239,VALID,16,VALID,0,
2010-08-14, 02:46:04,VALID,1004.2,VALID,0,INVALID,115.646,VALID,0,VALID,23.5832,VALID,16,VALID,0,
2010-08-14, 02:47:04,VALID,1004.19,VALID,0,INVALID,115.562,VALID,0,VALID,23.6239,VALID,16,VALID,0,
2010-08-14, 02:48:04,VALID,1004.2,VALID,0,INVALID,115.44,VALID,0,VALID,23.6221,VALID,16,VALID,0,
2010-08-14, 02:49:04,VALID,1004.19,VALID,0,INVALID,115.364,VALID,0.100563,VALID,23.6434,VALID,16,VALID,0,
2010-08-14, 02:50:04,VALID,1004.21,VALID,0,INVALID,115.303,VALID,0,VALID,23.6646,VALID,16,VALID,0,
2010-08-14, 02:51:04,VALID,1004.19,VALID,0,INVALID,115.127,VALID,0,VALID,23.6823,VALID,16,VALID,0,
2010-08-14, 02:52:04,VALID,1004.2,VALID,0,INVALID,114.998,VALID,0,VALID,23.7017,VALID,16,VALID,0,
2010-08-14, 02:53:04,VALID,1004.19,VALID,0,INVALID,114.891,VALID,0,VALID,23.7212,VALID,16,VALID,0,
2010-08-14, 02:54:04,VALID,1004.17,VALID,0,INVALID,114.792,VALID,0,VALID,23.7407,VALID,16,VALID,0,
2010-08-14, 02:55:04,VALID,1004.17,VALID,0,INVALID,114.632,VALID,0,VALID,23.7814,VALID,16,VALID,0,
2010-08-14, 02:56:04,VALID,1004.17,VALID,0,INVALID,114.555,VALID,0,VALID,23.8009,VALID,16,VALID,0,
2010-08-14, 02:57:04,VALID,1004.15,VALID,0,INVALID,114.357,VALID,0,VALID,23.8593,VALID,22,VALID,0.140625,
2010-08-14, 02:58:04,VALID,1004.11,VALID,0,INVALID,114.258,VALID,0,VALID,23.8787,VALID,22,VALID,0.2625,
2010-08-14, 02:59:04,VALID,1004.1,VALID,0,INVALID,114.22,VALID,0,VALID,23.8982,VALID,22,VALID,0.0148437,
2010-08-14, 03:00:04,VALID,1004.09,VALID,0,INVALID,114.197,VALID,0,VALID,23.8982,VALID,22,VALID,0,
2010-08-14, 03:01:04,VALID,1004.08,VALID,0,INVALID,114.159,VALID,0,VALID,23.9177,VALID,22,VALID,0,
2010-08-14, 03:02:04,VALID,1004.05,VALID,0,INVALID,114.159,VALID,0,VALID,23.8982,VALID,22,VALID,0,
2010-08-14, 03:03:04,VALID,1004.03,VALID,0,INVALID,114.105,VALID,0,VALID,23.8769,VALID,22,VALID,0.198047,
2010-08-14, 03:04:04,VALID,1004.02,VALID,0,INVALID,114.059,VALID,0,VALID,23.9177,VALID,22,VALID,0.423438,
2010-08-14, 03:05:04,VALID,1003.99,VALID,0,INVALID,114.09,VALID,0,VALID,23.9177,VALID,22,VALID,0.298438,
2010-08-14, 03:06:04,VALID,1003.97,VALID,0,INVALID,114.22,VALID,0,VALID,23.8593,VALID,22,VALID,0.283203,
2010-08-14, 03:07:04,VALID,1003.96,VALID,0,INVALID,114.334,VALID,0,VALID,23.7796,VALID,22,VALID,0.272266,
2010-08-14, 03:08:04,VALID,1003.96,VALID,0,INVALID,114.403,VALID,0,VALID,23.7601,VALID,22,VALID,0.220703,
2010-08-14, 03:09:04,VALID,1003.93,VALID,0,INVALID,114.395,VALID,0,VALID,23.7601,VALID,22,VALID,0.299609,
2010-08-14, 03:10:04,VALID,1003.92,VALID,0,INVALID,114.418,VALID,0,VALID,23.7814,VALID,22,VALID,0.348437,
2010-08-14, 03:11:04,VALID,1003.93,VALID,0,INVALID,114.334,VALID,0.100563,VALID,23.7389,VALID,22,VALID,0.375,
2010-08-14, 03:12:04,VALID,1003.93,VALID,0,INVALID,114.281,VALID,0.100563,VALID,23.7583,VALID,22,VALID,0.391016,
2010-08-14, 03:13:04,VALID,1003.92,VALID,0,INVALID,114.227,VALID,0,VALID,23.7583,VALID,22,VALID,0.35625,
2010-08-14, 03:14:04,VALID,1003.92,VALID,0,INVALID,114.265,VALID,0,VALID,23.7601,VALID,22,VALID,0.280078,
2010-08-14, 03:15:04,VALID,1003.9,VALID,0,INVALID,114.288,VALID,0,VALID,23.7407,VALID,22,VALID,0.418359,
2010-08-14, 03:16:04,VALID,1003.9,VALID,0,INVALID,114.159,VALID,0.100563,VALID,23.7796,VALID,22,VALID,0.335938,
2010-08-14, 03:17:04,VALID,1003.89,VALID,0,INVALID,114.09,VALID,0,VALID,23.7583,VALID,22,VALID,0.347266,
2010-08-14, 03:18:04,VALID,1003.91,VALID,0,INVALID,114.059,VALID,0.100563,VALID,23.7796,VALID,22,VALID,0.316797,
2010-08-14, 03:19:04,VALID,1003.9,VALID,0,INVALID,114.052,VALID,0.100563,VALID,23.7583,VALID,22,VALID,0.281641,
2010-08-14, 03:20:04,VALID,1003.9,VALID,0,INVALID,114.098,VALID,0,VALID,23.7194,VALID,22,VALID,0.35625,
2010-08-14, 03:21:04,VALID,1003.92,VALID,0,INVALID,114.113,VALID,0,VALID,23.7407,VALID,22,VALID,0,
2010-08-14, 03:22:04,VALID,1003.92,VALID,0,INVALID,114.052,VALID,0,VALID,23.7212,VALID,22,VALID,0,
2010-08-14, 03:23:04,VALID,1003.9,VALID,0,INVALID,114.029,VALID,0,VALID,23.7407,VALID,22,VALID,0,
2010-08-14, 03:24:04,VALID,1003.9,VALID,0,INVALID,114.044,VALID,0.100563,VALID,23.7212,VALID,22,VALID,0,
2010-08-14, 03:25:04,VALID,1003.91,VALID,0,INVALID,114.029,VALID,0.100563,VALID,23.7212,VALID,22,VALID,0,
2010-08-14, 03:26:04,VALID,1003.87,VALID,0,INVALID,113.945,VALID,0.100563,VALID,23.6787,VALID,22,VALID,0,
2010-08-14, 03:27:04,VALID,1003.89,VALID,0,INVALID,113.869,VALID,0,VALID,23.7407,VALID,19,VALID,0,
2010-08-14, 03:28:04,VALID,1003.87,VALID,0,INVALID,113.975,VALID,0,VALID,23.7,VALID,19,VALID,0,
2010-08-14, 03:29:04,VALID,1003.83,VALID,0,INVALID,113.975,VALID,0,VALID,23.7035,VALID,17,VALID,0,
2010-08-14, 03:30:04,VALID,1003.87,VALID,0,INVALID,113.968,VALID,0.100563,VALID,23.661,VALID,14,VALID,0,
2010-08-14, 03:31:04,VALID,1003.85,VALID,0,INVALID,113.907,VALID,0,VALID,23.6628,VALID,11,VALID,0,
2010-08-14, 03:32:04,VALID,1003.84,VALID,0,INVALID,113.876,VALID,0.100563,VALID,23.6823,VALID,11,VALID,0,
2010-08-14, 03:33:04,VALID,1003.86,VALID,0,INVALID,113.846,VALID,0.100563,VALID,23.6628,VALID,11,VALID,0,
2010-08-14, 03:34:04,VALID,1003.86,VALID,0,INVALID,113.808,VALID,0,VALID,23.6416,VALID,11,VALID,0,
2010-08-14, 03:35:04,VALID,1003.84,VALID,0,INVALID,113.8,VALID,0,VALID,23.6646,VALID,11,VALID,0,
2010-08-14, 03:36:04,VALID,1003.8,VALID,0,INVALID,113.853,VALID,0.100563,VALID,23.6221,VALID,11,VALID,0,
2010-08-14, 03:37:04,VALID,1003.82,VALID,0,INVALID,113.823,VALID,0,VALID,23.6434,VALID,11,VALID,0,
2010-08-14, 03:38:04,VALID,1003.76,VALID,0,INVALID,113.686,VALID,0,VALID,23.6628,VALID,12,VALID,0,
2010-08-14, 03:39:04,VALID,1003.75,VALID,0,INVALID,113.48,VALID,0,VALID,23.723,VALID,12,VALID,0,
2010-08-14, 03:40:04,VALID,1003.75,VALID,0,INVALID,113.358,VALID,0,VALID,23.7194,VALID,33,VALID,0,
2010-08-14, 03:41:04,VALID,1003.74,VALID,0,INVALID,113.228,VALID,0,VALID,23.7796,VALID,35,VALID,0,
2010-08-14, 03:42:04,VALID,1003.7,VALID,0,INVALID,113.068,VALID,0,VALID,23.8593,VALID,35,VALID,0,
2010-08-14, 03:43:04,VALID,1003.66,VALID,0,INVALID,113.045,VALID,0,VALID,23.8575,VALID,35,VALID,0,
2010-08-14, 03:44:04,VALID,1003.67,VALID,0,INVALID,113.045,VALID,0,VALID,23.8593,VALID,35,VALID,0,
2010-08-14, 03:45:04,VALID,1003.66,VALID,0,INVALID,113.121,VALID,0,VALID,23.838,VALID,35,VALID,0,
2010-08-14, 03:46:04,VALID,1003.64,VALID,0,INVALID,113.106,VALID,0,VALID,23.8398,VALID,35,VALID,0,
2010-08-14, 03:47:04,VALID,1003.66,VALID,0,INVALID,113.075,VALID,0,VALID,23.8398,VALID,35,VALID,0,
2010-08-14, 03:48:04,VALID,1003.65,VALID,0,INVALID,112.915,VALID,0,VALID,23.8769,VALID,60,VALID,0,
2010-08-14, 03:49:04,VALID,1003.65,VALID,0,INVALID,112.793,VALID,0,VALID,23.9159,VALID,66,VALID,0.380078,
2010-08-14, 03:50:04,VALID,1003.66,VALID,0,INVALID,112.762,VALID,0,VALID,23.9353,VALID,66,VALID,0.442187,
2010-08-14, 03:51:04,VALID,1003.64,VALID,0,INVALID,112.724,VALID,0,VALID,23.9742,VALID,91,VALID,0.771094,